Location: Unspecified
(0.0000°N, 0.0000°E)
Time: 01:03:07
(UTC+01:00)

NOAA 12 - Visible Passes

Search period start: 22 January 2018 00:00
Search period end: 01 February 2018 00:00
Orbit: 796 x 815 km, 98.5° (Epoch: 21 January)

Date Brightness Start Highest point End Pass type
(mag) Time Alt. Az. Time Alt. Az. Time Alt. Az.
22 Jan 4.6 20:07:00 10° S 20:12:09 61° WSW 20:17:17 10° NNW visible
23 Jan 4.0 19:42:01 10° SSE 19:47:13 67° ENE 19:52:23 10° N visible
24 Jan 7.8 06:43:11 10° E 06:44:58 12° ESE 06:46:45 10° ESE visible
24 Jan 7.1 20:58:52 10° SW 21:01:47 15° WSW 21:04:43 10° WNW visible
25 Jan 6.0 20:32:21 10° SSW 20:36:53 30° WSW 20:41:24 10° NW visible
26 Jan 4.7 20:06:47 10° S 20:11:57 61° WSW 20:17:05 10° NNW visible
27 Jan 4.1 19:41:49 10° SSE 19:47:01 67° ENE 19:52:11 10° N visible
28 Jan 7.8 06:43:00 10° E 06:44:47 12° ESE 06:46:33 10° ESE visible
28 Jan 7.1 20:58:39 10° SW 21:01:35 15° WSW 21:04:32 10° WNW visible
29 Jan 6.0 20:32:08 10° SSW 20:36:40 30° WSW 20:41:12 10° NW visible
30 Jan 4.7 20:06:35 10° S 20:11:45 61° WSW 20:16:53 10° NNW visible
31 Jan 4.1 19:41:37 10° SSE 19:46:48 66° ENE 19:51:59 10° N visible
